This is the latest recevied weather packets stored in our database for station/object AI9F. If no packets are shown the sender has not sent any weather packets the latest 10 day(s).
| Time | Temp. | Humidity | Pressure | Rain* | Wind** | Luminosity | Snow |
|---|---|---|---|---|---|---|---|
| 1777819397 | 13.89° C | 58% | 1019.6 hPa | 0 mm | - | 83 W/m² | - |
| 1777819094 | 13.33° C | 57% | 1019.6 hPa | 0 mm | - | 81 W/m² | - |
| 1777818790 | 12.78° C | 58% | 1019.6 hPa | 0 mm | - | 66 W/m² | - |
| 1777818487 | 12.78° C | 62% | 1019.6 hPa | 0 mm | - | 64 W/m² | - |
| 1777818184 | 12.78° C | 60% | 1019.6 hPa | 0 mm | - | 64 W/m² | - |
| 1777817880 | 12.22° C | 62% | 1019.9 hPa | 0 mm | - | 64 W/m² | - |
| 1777817578 | 12.22° C | 63% | 1019.9 hPa | 0 mm | - | 62 W/m² | - |
| 1777817274 | 12.22° C | 62% | 1020 hPa | 0 mm | - | 75 W/m² | - |
| 1777816971 | 12.22° C | 63% | 1020.3 hPa | 0 mm | - | 60 W/m² | - |
| 1777816668 | 12.22° C | 65% | 1020.2 hPa | 0 mm | - | 59 W/m² | - |
| 1777816365 | 11.67° C | 63% | 1020.3 hPa | 0 mm | - | 64 W/m² | - |
| 1777816063 | 11.67° C | 66% | 1020.2 hPa | 0 mm | - | 67 W/m² | - |
| 1777815760 | 11.67° C | 67% | 1020.4 hPa | 0 mm | - | 161 W/m² | - |
| 1777815457 | 11.67° C | 68% | 1020.2 hPa | 0 mm | - | 155 W/m² | - |
| 1777815155 | 11.67° C | 67% | 1020.2 hPa | 0 mm | - | 145 W/m² | - |
| 1777814851 | 11.11° C | 69% | 1020.1 hPa | 0 mm | - | 314 W/m² | - |
| 1777814547 | 11.11° C | 71% | 1020 hPa | 0 mm | - | 255 W/m² | - |
| 1777814244 | 11.11° C | 71% | 1019.9 hPa | 0 mm | - | 155 W/m² | - |
| 1777813941 | 10.56° C | 74% | 1019.9 hPa | 0 mm | - | 104 W/m² | - |
| 1777813639 | 10° C | 77% | 1019.9 hPa | 0 mm | - | 150 W/m² | - |
| 1777813336 | 10° C | 75% | 1019.8 hPa | 0 mm | - | 131 W/m² | - |
| 1777813033 | 10° C | 75% | 1019.8 hPa | 0 mm | - | 87 W/m² | - |
| 1777812731 | 10° C | 80% | 1020 hPa | 0 mm | - | 99 W/m² | - |
| 1777812427 | 10° C | 78% | 1019.9 hPa | 0 mm | - | 89 W/m² | - |
| 1777812125 | 9.44° C | 80% | 1020 hPa | 0 mm | - | 82 W/m² | - |
* Rain latest hour (hover to see other rain measurements)
** Current wind speed in m/s (hover to see current wind gust speed)